Weather History for London-Corbin, KY

Change the Weather History Date:

Sunday, January 5, 2014

  Actual Average Record
Temperature  
Mean Temperature 42 °F 36 °F  
Max Temperature 56 °F 44 °F 68 °F (2007)
Min Temperature 27 °F 27 °F -12 °F (1969)
Degree Days  
Heating Degree Days 23 30  
Month to date heating degree days 171 146  
Since 1 July heating degree days 1778 1798  
Cooling Degree Days 0 0  
Month to date cooling degree days 0 0  
Year to date cooling degree days 0 0  
Moisture  
Dew Point 35 °F    
Average Humidity 72    
Maximum Humidity 89    
Minimum Humidity 55    
Precipitation  
Precipitation 0.22 in 0.12 in 0.70 in (1993)
Month to date precipitation 0.37 0.58  
Year to date precipitation 0.37 0.58  
Sea Level Pressure  
Sea Level Pressure 29.85 in    
Wind  
Wind Speed 11 mph (SSW)    
Max Wind Speed 39 mph    
Max Gust Speed 51 mph    
Visibility 8 miles    
Events Rain , Snow    
T = Trace of Precipitation, MM = Missing Value Source: NWS Daily Summary

Daily Weather History Graph

Daily Weather History Graph

Search for Another Location

Airport:

Trip Planner

Search our weather history database for the weather conditions in past years. The results will help you decide how hot, cold, wet, or windy it might be!

Date:

Astronomy

Jan. 05, 2014 Rise Set
Actual Time 7:50 AM EST 5:33 PM EST
Civil Twilight 7:21 AM EST 6:02 PM EST
Nautical Twilight 6:49 AM EST 6:34 PM EST
Astronomical Twilight 6:17 AM EST 7:06 PM EST
Moon 10:38 AM EST (1/5) 10:52 PM EST (1/5)
Length of Visible Light 10h 40m
Length of Day
9h 43m
Waxing Crescent, 24% of the Moon is Illuminated
Jan 5
Waxing Crescent
Jan 7
First Quarter
Jan 15
Full
Jan 24
Last Quarter
Jan 30
New

Hourly Weather History & Observations

Time (EST) Temp. Windchill Dew Point Humidity Pressure Visibility Wind Dir Wind Speed Gust Speed Precip Events Conditions
12:53 AM 28.9 °F - 24.1 °F 82% 30.11 in 10.0 mi Calm Calm - N/A   Partly Cloudy
1:53 AM 28.0 °F - 24.1 °F 85% 30.10 in 10.0 mi Calm Calm - N/A   Clear
2:46 AM 30.9 °F - 27.0 °F 85% 30.08 in 10.0 mi Calm Calm - N/A   Overcast
2:53 AM 30.9 °F 27.5 °F 27.0 °F 85% 30.10 in 10.0 mi West 3.5 mph - N/A   Overcast
3:42 AM 32.0 °F - 28.0 °F 85% 30.08 in 10.0 mi Calm Calm - N/A   Overcast
3:53 AM 32.0 °F - 28.0 °F 85% 30.09 in 10.0 mi Calm Calm - N/A   Overcast
4:53 AM 36.0 °F 33.3 °F 30.9 °F 82% 30.07 in 10.0 mi SSE 3.5 mph - N/A   Overcast
5:18 AM 37.0 °F 33.3 °F 33.1 °F 86% 30.04 in 10.0 mi SSE 4.6 mph - N/A   Scattered Clouds
5:53 AM 37.0 °F 34.5 °F 33.1 °F 86% 30.06 in 10.0 mi South 3.5 mph - N/A   Clear
6:53 AM 35.1 °F 31.0 °F 32.0 °F 89% 30.04 in 10.0 mi SE 4.6 mph - N/A   Overcast
7:53 AM 37.9 °F 34.4 °F 34.0 °F 86% 30.03 in 10.0 mi SE 4.6 mph - N/A   Partly Cloudy
8:53 AM 42.1 °F 37.1 °F 36.0 °F 79% 30.01 in 10.0 mi SSE 8.1 mph - N/A   Overcast
9:53 AM 46.0 °F 41.4 °F 37.0 °F 71% 29.99 in 10.0 mi SSE 9.2 mph - N/A   Partly Cloudy
10:53 AM 48.0 °F - 37.0 °F 66% 29.95 in 10.0 mi South 17.3 mph 24.2 mph N/A   Clear
11:53 AM 52.0 °F - 39.0 °F 61% 29.89 in 10.0 mi South 12.7 mph 21.9 mph N/A   Clear
12:53 PM 54.0 °F - 39.0 °F 57% 29.83 in 10.0 mi South 16.1 mph 23.0 mph N/A   Clear
1:53 PM 55.9 °F - 39.0 °F 53% 29.77 in 10.0 mi South 15.0 mph 23.0 mph N/A   Scattered Clouds
2:53 PM 53.1 °F - 39.0 °F 59% 29.74 in 10.0 mi South 11.5 mph 26.5 mph N/A   Scattered Clouds
3:53 PM 54.0 °F - 39.9 °F 59% 29.70 in 10.0 mi South 17.3 mph 25.3 mph N/A   Clear
4:53 PM 54.0 °F - 39.9 °F 59% 29.67 in 10.0 mi South 12.7 mph 21.9 mph N/A   Clear
5:53 PM 54.0 °F - 41.0 °F 62% 29.63 in 10.0 mi South 15.0 mph 23.0 mph N/A   Mostly Cloudy
6:53 PM 53.1 °F - 43.0 °F 69% 29.65 in 6.0 mi SW 5.8 mph - 0.01 in Rain Light Rain
7:53 PM 51.1 °F - 46.9 °F 86% 29.62 in 9.0 mi South 6.9 mph - 0.05 in Rain Light Rain
8:53 PM 52.0 °F - 46.9 °F 83% 29.57 in 7.0 mi SSW 12.7 mph - 0.05 in Rain Light Rain
9:53 PM 50.0 °F - 45.0 °F 83% 29.61 in 4.0 mi West 39.1 mph 50.6 mph 0.05 in Rain Rain
10:04 PM 45.0 °F 35.8 °F 39.0 °F 80% 29.64 in 8.0 mi West 26.5 mph 43.7 mph 0.00 in Rain Light Rain
10:20 PM 43.0 °F 34.2 °F 39.0 °F 86% 29.65 in 6.0 mi West 20.7 mph 25.3 mph 0.01 in Rain Light Rain
10:35 PM 39.9 °F 30.0 °F 35.1 °F 83% 29.67 in 9.0 mi West 21.9 mph 39.1 mph 0.02 in Rain Light Rain
10:53 PM 36.0 °F 23.9 °F 32.0 °F 86% 29.72 in 4.0 mi West 25.3 mph 31.1 mph 0.03 in Snow Light Snow
11:00 PM 35.1 °F 25.5 °F 30.9 °F 85% 29.71 in 1.8 mi West 15.0 mph 31.1 mph 0.01 in Snow Light Snow
11:15 PM 34.0 °F 23.0 °F 30.0 °F 85% 29.74 in 0.8 mi West 18.4 mph 32.2 mph 0.01 in Snow Light Snow
11:24 PM 33.1 °F 22.2 °F 30.0 °F 89% 29.75 in 0.8 mi West 17.3 mph 32.2 mph 0.02 in Snow Light Snow
11:53 PM 30.9 °F 19.1 °F 28.0 °F 89% 29.78 in 0.8 mi West 18.4 mph - 0.03 in Snow Light Snow